Theta_e
311 312 313 313 313 313 313 315 318 317 316 313 309 312 304 302 300 307 314 315 312 303 295 297 296 295 298 302 301 305 303 302 303 301 302 300 303 301 300 300 298 299 299 297 295 296 291 292 290 294 293 296 298 299 296 299 297 300 295 296 292 292 288 287 287 288 290 291 292 291 291 292 290 291 291 290 289 291 291 290 287 286 285 283 283 281 287
309 310 311 312 312 312 311 312 314 315 315 314 311 307 302 302 299 302 312 315 311 300 290 290 293 295 299 300 299 304 303 302 299 300 301 300 300 299 299 300 302 300 301 298 294 297 290 294 293 293 296 294 297 295 297 299 295 296 294 293 297 289 289 290 285 284 286 287 290 290 291 290 289 289 291 290 293 294 289 287 288 286 286 285 284 280 286
308 309 310 310 310 310 310 310 311 314 316 316 312 303 302 298 299 300 303 310 308 296 298 293 292 293 295 296 295 298 299 302 302 302 300 301 300 300 298 301 302 300 299 296 298 298 297 290 294 296 294 296 294 296 296 298 296 298 295 296 299 291 289 289 284 281 279 279 280 282 284 285 289 288 289 290 291 290 287 285 286 283 286 286 285 286 291
307 308 308 308 308 308 309 308 309 309 313 314 313 304 300 297 290 296 299 302 300 301 301 299 295 292 293 292 295 297 295 299 302 304 301 303 301 301 298 298 301 298 295 293 293 293 296 294 289 291 292 293 293 293 295 296 298 295 295 295 296 289 289 290 290 288 287 289 289 292 293 289 285 287 287 289 290 290 290 289 286 284 286 285 288 289 289
307 308 307 307 307 308 308 308 308 308 308 312 311 302 301 298 294 292 290 298 298 295 299 297 297 292 295 289 293 292 295 297 298 303 296 302 301 300 299 297 296 294 295 293 293 294 292 293 292 291 292 292 292 292 294 294 294 294 294 295 293 288 288 289 289 289 290 288 289 291 294 289 290 288 287 289 288 288 287 287 285 289 286 282 289 291 288
307 307 307 306 306 306 307 307 308 308 307 307 309 299 299 293 294 299 300 294 290 292 292 298 297 297 296 292 295 292 293 294 292 298 301 302 302 296 295 297 299 298 296 296 290 292 291 291 289 292 291 290 291 292 293 292 292 293 292 294 292 288 287 290 289 288 291 290 290 291 292 293 292 291 290 288 289 287 285 286 291 290 286 285 289 290 288
307 307 306 306 305 305 306 306 306 307 306 307 303 298 295 296 293 295 298 293 293 295 296 297 296 295 295 293 293 291 292 292 295 296 296 298 296 299 291 294 297 299 299 297 292 292 288 287 291 289 288 289 289 288 290 292 292 292 289 290 290 290 288 289 289 288 289 290 288 290 290 289 289 290 291 291 289 288 288 288 290 290 288 291 291 290 291
307 306 306 305 305 305 305 305 305 306 306 306 300 296 295 291 293 290 294 294 291 294 295 296 295 293 295 290 291 292 292 291 295 296 295 290 294 300 295 296 297 298 298 297 293 294 295 294 289 291 290 288 289 289 291 289 288 290 290 291 291 291 288 291 289 287 287 289 287 286 287 287 286 288 290 290 289 288 288 289 290 289 289 291 289 287 288
307 306 306 306 305 305 304 304 304 305 306 300 297 294 294 294 293 297 294 290 290 291 292 293 293 291 293 290 291 292 293 292 296 295 295 296 294 296 295 297 297 296 296 296 296 299 295 294 293 294 293 290 291 291 289 292 286 288 288 288 289 290 287 287 288 285 285 284 285 285 285 285 285 286 288 286 286 284 286 286 289 287 286 288 287 285 288
308 307 306 306 305 305 304 304 303 304 305 299 297 292 297 295 295 295 296 289 292 290 289 291 291 287 291 292 292 292 293 296 297 292 294 294 295 298 299 298 297 293 294 294 297 294 292 292 291 292 292 294 291 292 292 293 290 288 289 289 288 288 287 285 286 283 284 280 284 285 283 284 282 284 287 289 288 289 289 289 290 290 290 286 284 286 293
308 307 307 305 305 305 304 303 303 303 303 297 294 292 293 294 294 293 294 289 287 288 289 288 287 289 292 294 292 293 294 296 296 290 287 292 293 294 298 298 295 290 292 293 294 295 294 293 293 293 293 291 291 291 291 292 293 292 289 287 287 287 287 287 288 283 281 277 282 283 282 276 280 286 292 293 289 290 287 287 288 290 291 289 292 292 291
308 308 307 307 305 305 305 304 303 303 303 300 299 294 295 296 294 293 289 287 286 287 288 286 288 288 289 292 293 292 292 293 294 297 289 290 290 292 293 294 295 287 291 294 294 294 295 294 293 292 290 289 289 289 291 289 288 291 293 289 286 285 286 287 286 283 277 279 280 280 275 279 283 281 283 286 294 293 290 290 292 292 292 290 287 286 287
306 307 308 307 306 305 305 304 303 303 301 298 299 295 295 298 294 290 288 286 285 285 284 285 288 287 289 291 290 291 293 293 291 291 291 289 287 289 291 290 290 289 293 293 294 291 287 284 285 285 285 286 286 286 285 285 285 286 287 289 288 285 286 285 282 281 279 277 280 273 277 283 283 282 282 285 289 291 291 289 291 292 292 291 289 290 289
305 306 307 307 307 306 305 305 304 303 301 300 297 296 296 297 291 289 287 286 285 286 286 285 286 285 286 287 288 287 290 289 290 290 286 289 287 287 290 291 290 293 293 296 291 288 285 286 283 284 283 284 285 283 282 282 281 284 285 285 285 287 286 286 282 284 277 279 279 280 284 284 285 281 282 286 287 286 286 283 287 291 290 289 289 290 288
305 306 306 306 307 307 306 305 304 303 301 300 296 295 295 295 296 292 290 288 285 286 286 284 286 286 287 286 287 285 285 286 286 285 286 287 286 286 287 287 286 291 294 292 286 286 285 284 280 279 281 280 277 279 283 280 281 281 281 282 284 285 285 286 283 281 281 278 276 277 279 276 283 286 286 288 285 290 288 286 285 283 286 288 289 288 288
304 305 305 305 306 306 307 306 305 303 301 301 296 295 295 296 295 295 291 287 287 282 285 289 289 287 286 286 287 286 286 285 286 285 284 285 284 285 286 287 287 290 290 288 287 286 285 281 279 280 277 279 282 279 277 279 278 280 281 282 284 285 285 285 285 282 280 279 277 278 276 280 285 285 281 282 282 286 286 284 280 285 281 287 288 288 287
303 303 304 305 306 306 306 306 306 304 301 300 295 295 294 294 293 292 290 287 287 284 287 288 289 288 286 285 286 285 286 285 287 284 283 283 283 284 285 286 288 289 289 288 285 285 283 281 282 282 281 281 279 278 279 278 277 276 281 283 283 283 283 284 281 281 282 281 279 277 282 282 283 280 280 282 282 286 287 276 278 284 281 285 287 287 287
302 302 304 305 305 305 306 306 306 304 302 301 296 294 293 294 294 294 290 287 285 285 286 287 288 286 285 287 286 286 286 285 285 285 284 284 282 283 283 286 285 287 288 286 286 284 284 282 280 281 280 282 282 283 275 280 275 276 276 279 278 280 280 282 279 282 282 282 280 282 282 285 280 281 282 281 281 285 279 275 281 282 281 283 287 287 287
301 302 303 304 304 305 305 305 306 305 303 301 297 296 294 295 294 295 290 287 286 283 288 285 287 288 287 287 286 286 286 287 287 284 282 282 283 285 285 285 288 285 287 285 286 284 283 282 283 283 281 279 281 278 283 278 277 278 280 277 278 278 279 279 282 280 280 282 279 280 283 286 281 280 281 281 283 276 277 284 283 283 281 282 285 285 284
301 301 302 303 304 304 305 305 305 305 304 301 299 294 296 295 295 296 291 286 286 285 285 285 287 287 287 287 285 285 284 285 286 286 284 282 286 286 286 283 286 286 284 286 283 285 283 281 282 281 278 280 281 283 277 278 279 277 280 282 281 280 278 277 279 281 279 279 279 277 275 283 281 281 281 281 281 283 283 281 281 282 282 282 282 283 283
300 301 301 302 303 303 304 304 304 304 304 302 300 295 292 296 295 296 296 292 287 284 285 287 285 288 287 287 289 290 288 287 287 286 287 285 287 287 280 281 285 285 283 285 281 283 284 282 279 280 282 283 282 282 278 278 276 280 281 280 280 285 278 278 281 285 277 278 275 277 284 281 283 284 281 283 285 286 283 283 281 281 280 282 282 283 283
299 300 301 301 302 302 303 303 303 303 304 303 301 298 293 295 295 295 295 294 287 284 285 288 287 287 289 289 291 291 291 290 290 291 286 284 287 286 285 284 286 285 285 283 280 279 280 279 280 277 278 278 279 279 280 276 276 277 275 278 278 285 282 283 281 285 281 281 283 283 282 283 285 285 283 285 284 283 283 285 284 282 281 282 284 283 283
299 299 300 301 301 302 302 302 303 302 303 303 301 296 294 293 293 296 294 288 290 290 289 287 288 288 292 291 290 289 288 290 289 288 291 288 286 286 284 285 285 285 283 285 286 285 283 280 278 282 277 280 281 277 276 279 279 277 276 281 283 280 281 282 282 281 281 280 282 281 280 282 284 283 283 283 282 280 281 282 282 283 282 283 284 284 283
299 299 299 300 301 301 302 302 303 303 302 303 301 298 295 294 294 293 291 289 286 284 286 287 285 283 284 286 288 288 290 289 292 291 291 293 286 284 285 285 287 284 283 283 284 284 280 279 280 281 278 281 279 277 277 276 276 279 278 279 281 279 279 280 281 282 280 278 279 279 280 281 282 283 282 281 280 281 280 281 283 283 282 282 283 283 283
299 298 300 300 300 300 301 301 301 302 302 302 301 300 297 294 294 293 288 283 283 284 280 283 284 289 290 290 290 288 289 291 292 289 289 291 290 287 285 286 286 286 286 283 282 283 281 280 277 277 279 283 284 279 283 280 278 281 277 280 279 279 282 279 280 278 280 279 278 278 278 279 281 283 282 282 282 280 280 281 281 281 281 282 282 281 281
298 298 299 300 300 299 300 300 301 302 302 302 301 297 294 293 295 295 293 291 289 286 281 281 283 288 288 288 288 290 291 290 289 289 289 290 291 291 285 283 283 284 283 284 285 284 279 275 273 273 279 280 287 279 277 282 281 282 281 282 283 282 282 275 279 277 277 276 278 278 279 280 281 280 282 284 284 283 281 280 280 280 280 280 280 281 281
297 298 298 299 299 299 300 301 301 301 302 302 300 299 297 296 295 293 290 290 286 282 284 281 284 285 286 286 290 287 289 290 289 288 287 287 287 286 286 284 282 282 283 281 281 277 274 274 276 277 278 277 280 278 280 278 280 277 277 281 279 280 278 280 278 274 275 277 278 279 276 277 281 281 282 283 283 282 281 280 280 280 281 280 280 279 279
296 297 297 298 299 299 298 300 301 301 301 302 300 299 298 295 295 296 296 294 289 283 283 283 283 283 288 285 289 289 289 289 288 287 287 286 286 286 285 284 284 282 282 282 278 278 277 278 277 278 277 277 277 273 278 277 278 276 276 279 281 280 281 279 278 278 276 280 280 281 283 282 283 284 285 283 282 282 281 281 281 281 282 281 281 280 279
296 296 297 298 299 299 299 299 300 300 301 300 296 294 292 296 297 296 297 297 293 285 284 283 285 285 280 283 289 287 288 288 287 287 286 285 286 285 285 284 284 284 283 282 282 280 279 279 281 277 276 281 279 271 276 271 272 274 279 281 280 282 283 282 281 280 280 282 281 281 281 281 282 281 282 283 282 282 282 282 283 282 282 281 281 282 281
295 296 297 297 298 299 299 299 300 300 300 296 291 287 286 287 295 295 297 297 292 287 284 281 277 281 285 282 282 284 285 287 287 286 284 284 284 284 284 284 283 285 284 282 282 278 281 279 279 279 280 282 278 275 272 270 270 275 281 281 282 282 281 282 283 282 281 282 281 282 282 282 281 280 280 280 281 282 282 282 282 282 281 281 280 280 281
295 295 296 297 297 298 299 299 300 301 298 292 289 283 282 280 288 296 298 295 294 289 285 285 281 283 279 281 284 284 285 285 285 284 284 284 284 284 284 284 283 285 281 281 281 281 281 275 279 279 282 282 280 274 272 270 269 273 279 281 281 280 280 281 281 282 281 280 279 279 279 280 279 280 280 279 278 280 281 281 282 281 282 280 280 281 281
295 295 296 296 297 298 298 299 300 300 296 290 287 286 287 288 293 295 297 295 292 288 285 280 280 279 279 283 281 283 285 285 285 284 283 285 282 283 282 284 282 285 285 280 281 280 277 279 277 278 279 283 280 270 272 272 273 276 280 279 281 280 280 280 280 279 280 280 279 279 279 279 279 280 282 282 281 279 280 281 282 281 279 280 280 279 279
295 295 295 296 296 298 299 299 299 299 294 295 297 292 291 293 297 298 298 293 290 286 287 283 278 281 280 279 282 282 284 284 282 283 280 285 281 283 279 284 281 281 288 282 277 276 279 277 279 277 279 282 277 274 273 274 277 281 280 280 279 280 280 280 281 281 280 279 282 280 279 281 281 281 282 282 281 279 279 279 279 278 276 276 276 277 277
294 295 295 295 296 297 298 299 299 299 298 294 287 289 287 293 298 298 296 291 287 286 286 282 278 276 276 283 278 282 286 281 280 283 278 285 282 282 278 280 280 278 279 280 279 278 277 278 276 277 279 275 278 274 270 275 280 280 280 280 279 279 278 278 279 279 280 279 280 282 283 283 281 279 279 279 279 279 278 278 277 275 276 276 277 278 279
295 294 295 295 296 297 298 298 295 292 288 288 289 291 292 297 298 298 294 288 283 281 281 280 282 277 274 273 272 279 286 283 279 282 280 282 285 280 280 276 280 278 278 285 277 277 278 277 279 276 273 277 274 270 274 277 279 280 280 280 281 279 278 277 277 279 279 279 279 279 280 280 279 279 280 280 279 277 277 276 277 277 277 278 278 279 279
294 294 294 295 295 296 295 294 290 287 284 285 287 293 297 299 299 296 292 287 287 282 281 281 281 277 279 273 271 275 286 280 283 283 282 283 280 283 280 279 276 279 281 278 276 279 276 282 279 272 278 275 272 275 278 280 279 280 281 280 281 280 279 280 280 279 278 278 278 278 278 278 278 279 280 279 279 276 277 277 275 275 277 279 279 280 279
294 294 294 294 292 289 286 286 288 287 287 290 294 298 298 294 290 289 287 287 286 287 283 282 279 279 281 277 276 277 283 275 283 279 282 278 277 283 280 279 275 281 279 276 277 277 279 285 276 273 275 274 276 280 281 282 281 281 281 282 281 281 281 281 279 278 276 275 273 276 276 276 276 276 277 277 278 276 272 274 276 274 273 275 277 277 278
293 293 290 288 285 282 282 283 284 289 296 294 295 290 287 289 282 284 284 281 284 285 280 283 280 277 275 278 273 282 282 279 283 277 279 281 279 276 282 279 278 281 269 275 278 282 280 278 276 275 276 281 282 282 282 282 282 282 282 281 281 281 281 281 278 277 274 273 273 273 271 270 272 275 275 276 276 275 276 278 278 277 277 277 278 278 278
291 288 285 286 284 281 283 284 292 297 294 292 288 283 280 282 281 278 277 281 282 277 282 282 278 275 278 277 278 286 281 280 278 280 275 282 277 273 280 273 279 279 271 275 276 284 273 275 276 276 275 278 279 281 283 282 282 282 282 282 282 281 280 280 281 280 278 279 281 280 279 278 277 277 277 276 277 278 277 277 276 276 276 276 276 276 276
285 281 282 282 281 284 288 293 297 292 288 283 282 281 276 278 277 272 280 273 274 278 282 276 278 273 278 279 278 277 286 281 276 276 277 280 285 276 276 274 277 276 269 274 274 280 274 271 276 275 274 279 279 282 281 281 280 281 280 279 278 279 279 279 278 280 281 281 280 277 277 278 278 279 277 277 276 275 273 272 274 274 273 274 274 273 274
285 284 283 281 282 285 285 286 285 285 281 278 276 276 275 272 272 274 276 273 273 274 279 279 278 276 279 281 281 277 283 283 279 280 280 276 280 277 271 271 278 270 268 271 275 272 271 272 274 274 274 279 280 278 279 277 275 272 266 264 266 267 269 272 272 271 272 273 273 271 270 270 270 270 269 269 270 271 271 270 269 269 269 270 270 270 268
287 286 285 287 286 285 286 283 281 278 277 277 274 270 272 272 273 269 273 272 272 273 274 276 274 276 276 280 278 280 278 278 279 278 275 272 280 273 270 268 270 268 266 272 273 270 273 270 271 272 278 273 265 264 266 267 263 263 263 260 260 261 262 264 267 263 262 266 267 267 263 262 259 257 256 259 262 262 261 262 262 260 258 257 258 260 261
292 289 288 284 283 281 281 277 277 276 272 270 269 267 269 266 270 271 270 269 269 273 276 277 277 282 279 279 277 278 279 281 279 276 274 273 278 273 269 269 268 266 270 271 270 269 267 267 268 275 271 264 260 258 258 257 257 259 261 259 258 258 259 260 262 260 258 257 257 257 256 255 253 252 252 252 257 258 255 254 254 253 254 253 254 255 255
287 286 281 278 278 277 279 271 278 272 269 270 269 266 267 266 267 264 263 268 268 271 275 275 276 278 275 280 278 277 278 280 280 274 272 273 272 270 271 268 269 272 273 269 269 268 269 266 272 273 266 262 258 256 255 255 255 256 259 258 257 256 257 258 259 259 259 258 256 254 254 254 253 252 251 251 251 252 254 254 254 254 253 254 254 254 254
281 277 276 275 273 277 275 269 274 271 268 268 271 266 268 267 270 268 270 271 274 275 276 277 279 279 276 276 277 277 281 275 280 274 271 273 269 271 268 268 270 267 268 267 266 265 265 266 270 267 265 262 258 255 254 253 254 253 253 255 256 254 254 254 255 255 255 255 253 253 252 253 253 252 251 250 251 251 251 252 253 254 254 254 254 254 254
279 277 275 271 268 272 271 268 269 266 268 270 267 266 268 271 272 270 269 267 273 276 276 278 278 278 273 273 276 275 273 274 273 272 272 270 270 268 269 269 270 268 267 266 264 265 268 271 269 265 258 255 255 253 252 252 252 252 253 253 253 252 252 252 252 253 254 254 254 253 252 252 252 252 251 251 250 249 250 250 252 252 253 253 252 251 252
276 274 273 273 270 270 270 267 267 268 267 267 266 268 271 270 270 271 267 269 276 277 278 278 278 278 275 272 272 271 270 270 270 272 272 267 267 270 273 270 267 268 266 264 262 264 268 269 262 256 254 253 252 251 251 251 251 251 251 251 251 251 251 251 251 251 252 252 252 253 252 251 251 251 251 251 250 250 250 250 251 251 252 251 250 250 251
274 275 272 268 267 268 266 264 264 264 262 264 264 267 270 271 273 270 268 270 278 278 277 276 274 275 273 273 274 272 268 266 270 269 271 271 271 266 267 266 266 269 267 266 268 269 267 261 256 255 253 252 251 250 250 251 251 250 250 250 250 250 250 250 250 250 250 250 250 250 250 250 250 250 250 250 250 250 249 249 249 250 250 250 250 251 251
275 271 269 266 264 265 265 265 267 266 263 263 263 267 271 273 271 271 269 273 278 277 277 277 274 274 270 272 271 272 270 273 269 269 270 266 265 265 266 262 263 262 267 268 268 263 259 254 254 252 251 250 251 250 250 250 250 250 249 249 249 249 249 249 249 249 250 250 251 251 251 252 251 251 251 251 251 250 249 248 248 248 249 250 251 251 251
272 268 266 264 264 264 262 264 269 265 264 266 267 269 270 271 270 268 267 274 275 276 277 278 277 274 270 270 267 268 268 268 268 270 266 265 264 264 263 260 263 264 265 260 259 256 254 253 253 252 251 250 250 250 249 249 250 250 249 249 249 249 249 249 249 249 248 249 249 250 250 251 251 251 250 250 250 250 249 248 247 248 248 249 250 251 251
272 267 262 262 263 266 267 267 267 264 264 266 267 265 266 270 270 269 267 271 276 276 272 269 268 267 266 264 266 266 267 271 269 267 267 264 264 263 263 262 262 262 258 255 254 254 252 252 251 250 249 249 250 249 249 249 249 249 249 248 248 249 249 248 248 248 248 248 249 250 249 249 250 250 250 251 251 251 250 249 247 246 247 247 248 249 250
268 265 263 264 263 261 263 267 265 264 263 261 261 260 264 267 263 265 265 271 277 274 270 264 265 264 263 264 266 266 268 268 267 265 263 262 261 263 260 260 259 256 255 255 254 253 252 251 250 249 249 249 249 249 248 247 247 247 246 246 246 247 247 248 248 248 248 248 248 248 248 248 249 249 250 251 251 252 251 251 249 246 247 248 247 246 247
Wind_Speed
7 6 3 1 2 3 2 4 8 10 11 4 3 6 3 5 6 5 21 25 27 20 17 16 14 13 16 13 7 4 5 8 4 12 8 8 4 4 7 12 9 6 7 5 8 15 6 13 12 7 8 10 12 5 7 12 12 5 3 10 3 6 3 5 1 3 1 2 2 1 2 1 4 8 3 3 12 11 8 3 5 8 5 4 2 5 3
5 5 3 0 4 5 5 3 4 8 15 6 6 6 3 2 2 1 7 23 21 20 16 17 17 16 14 12 14 10 9 8 7 12 13 12 8 12 10 1 10 7 6 5 11 12 6 11 15 8 5 6 5 5 10 17 11 13 8 10 12 6 6 6 4 1 1 2 3 4 2 3 8 8 9 8 3 6 1 4 0 4 10 7 7 14 3
5 3 1 2 3 4 5 5 4 6 13 10 8 4 4 4 2 0 3 10 19 18 13 18 17 18 16 15 19 14 8 9 15 11 10 7 6 9 12 11 6 4 5 9 8 14 21 2 12 8 5 4 2 1 11 13 11 4 1 3 10 7 3 12 11 13 10 10 13 16 14 15 3 3 4 10 16 12 6 7 6 8 5 14 9 10 2
4 4 1 0 2 3 5 5 5 5 7 14 7 5 3 4 3 2 3 7 4 4 2 13 17 18 16 14 17 17 16 7 10 13 13 11 7 7 3 2 7 9 7 8 10 11 8 6 3 9 9 4 2 1 4 7 8 4 8 11 12 3 1 10 16 14 16 6 3 5 12 7 10 12 11 15 15 13 10 2 5 13 5 11 16 10 4
5 5 3 0 0 2 3 5 6 6 6 11 8 2 3 0 6 5 3 1 9 4 1 8 13 18 19 13 8 18 20 12 2 11 8 15 14 7 7 4 8 6 11 13 11 9 10 4 2 10 8 1 2 1 3 3 3 12 7 6 7 2 6 15 13 13 10 5 2 4 15 16 18 14 14 15 15 15 16 14 14 7 4 14 11 9 12
7 6 4 3 2 1 3 3 4 6 7 6 7 4 4 7 2 6 3 6 9 12 10 9 15 14 15 12 6 16 19 15 11 6 14 5 11 10 2 8 16 16 17 13 8 8 11 9 12 5 2 6 2 4 1 5 4 7 4 5 7 5 10 11 10 16 10 2 3 3 7 13 14 18 18 17 16 14 20 21 12 14 12 13 10 13 12
8 7 5 4 2 2 2 2 4 4 6 5 2 5 2 1 1 2 1 2 2 13 6 9 12 16 16 10 12 12 18 21 19 8 7 8 7 16 11 17 21 17 14 14 11 11 7 10 11 6 7 10 6 3 2 4 3 4 6 7 3 4 10 6 7 12 10 10 5 4 8 3 4 13 17 18 18 20 19 18 14 15 15 16 6 12 15
10 9 7 6 4 3 4 3 2 2 4 4 4 1 4 5 4 4 1 1 1 2 5 7 11 14 16 12 15 15 17 21 15 6 9 7 13 13 19 20 15 16 14 13 13 15 19 14 12 8 10 4 4 9 8 5 2 3 8 8 4 9 8 10 5 7 11 10 5 4 3 4 5 8 8 14 12 14 20 17 17 15 16 11 8 6 10
12 10 9 8 6 5 3 2 1 3 3 3 2 1 1 1 1 1 6 5 3 1 2 5 10 10 10 12 11 12 18 19 16 9 1 14 10 11 22 23 15 9 15 16 17 14 10 8 9 11 17 15 11 11 4 10 10 8 5 4 3 7 3 4 5 9 9 4 8 4 0 1 5 10 15 9 11 11 12 10 11 8 13 11 7 10 11
14 13 11 9 7 6 5 3 2 2 3 4 3 2 2 1 2 1 3 4 3 6 1 4 3 10 9 11 12 9 18 16 9 7 2 1 3 6 14 14 12 10 13 20 15 4 9 8 7 6 4 5 7 3 5 12 14 10 10 3 9 8 6 6 7 10 10 1 5 8 4 1 6 22 18 12 16 12 8 8 7 14 13 11 12 16 6
16 14 13 10 9 8 6 5 3 1 2 3 4 2 1 2 2 2 3 3 1 4 7 6 8 1 3 6 6 3 4 10 13 14 3 1 2 5 5 11 11 6 10 4 6 10 10 8 7 6 9 9 8 6 5 4 5 10 12 3 2 4 9 9 6 8 3 1 4 6 7 10 14 3 2 20 19 18 14 15 14 14 12 10 8 7 2
13 16 15 13 10 9 8 6 5 3 2 2 3 4 4 3 4 4 2 6 3 3 7 6 10 3 6 7 7 6 8 10 12 10 8 2 1 4 5 3 9 5 3 7 8 9 7 5 8 9 10 10 10 8 7 6 5 6 3 9 8 11 9 8 3 4 3 3 6 6 11 17 1 4 5 4 10 13 16 15 18 19 16 10 4 4 8
12 12 14 14 12 11 9 8 7 6 4 4 3 5 4 2 5 3 3 1 3 6 6 3 2 2 3 3 5 8 6 1 6 7 5 8 0 2 2 2 3 5 8 7 6 8 6 6 8 6 5 5 5 7 6 4 3 4 5 4 7 9 11 4 2 4 4 3 7 6 8 2 2 2 3 1 3 5 11 13 14 13 16 15 14 11 6
13 13 13 13 14 13 11 11 9 7 7 4 3 3 4 5 6 4 2 2 2 2 1 4 3 5 5 7 7 4 2 2 3 5 4 1 6 4 1 2 2 4 7 7 8 7 5 1 5 3 1 2 1 2 1 5 5 2 2 1 4 5 2 3 5 3 6 4 10 6 7 10 5 5 5 8 8 10 11 10 12 13 10 11 12 11 6
13 13 12 11 11 14 13 13 12 10 8 5 6 4 3 1 6 6 2 2 1 1 3 5 5 7 8 5 7 6 4 4 6 3 2 2 3 1 0 2 2 4 5 7 3 1 2 3 3 4 2 4 5 5 3 2 3 3 2 1 1 1 6 2 4 4 5 4 3 1 3 10 7 3 4 7 2 5 4 2 4 1 5 8 10 10 9
13 13 11 10 9 11 15 15 15 13 11 8 5 4 3 2 3 5 5 5 2 2 4 4 4 5 5 2 7 8 5 5 4 4 4 2 1 2 1 1 2 0 2 2 2 3 2 4 4 6 4 5 0 6 3 4 0 1 2 1 2 2 1 1 5 1 4 5 7 5 6 6 1 1 1 1 1 7 5 3 5 2 8 10 13 13 6
14 12 10 9 10 10 13 16 17 16 14 11 5 5 4 4 3 5 4 2 2 4 3 5 3 4 3 3 2 1 1 4 5 4 4 3 3 2 1 1 1 2 5 4 2 2 3 1 0 1 1 2 5 5 4 2 4 2 3 4 4 3 3 4 4 5 5 6 5 8 3 4 1 2 0 1 3 3 4 2 4 5 8 5 6 8 6
16 13 11 10 10 11 12 15 18 18 17 13 7 6 4 3 3 5 4 3 4 2 3 5 6 3 4 2 3 1 3 3 4 1 2 2 4 3 4 2 3 2 1 5 3 3 5 4 6 5 5 1 0 4 3 6 5 5 6 7 4 4 2 4 10 9 9 11 8 3 5 2 1 4 3 3 2 1 7 7 2 3 5 6 7 6 6
17 14 12 11 11 12 13 14 17 20 19 15 7 5 1 5 4 4 5 3 2 3 4 1 2 2 2 4 3 2 1 1 2 5 3 3 3 2 5 1 1 4 2 5 4 5 6 4 1 1 3 2 1 5 2 5 5 3 8 6 2 1 3 1 1 7 9 8 7 8 5 1 4 2 4 3 4 5 7 1 1 9 7 6 6 5 6
16 14 14 12 13 13 12 12 13 16 20 18 11 5 3 5 4 6 7 5 2 1 2 5 4 7 4 6 5 3 1 1 2 2 4 4 2 8 2 2 1 2 2 2 5 3 4 7 5 1 0 4 5 2 2 1 3 7 5 4 5 9 8 7 8 3 2 1 8 2 9 2 7 10 5 4 5 1 6 4 2 1 7 9 6 6 7
16 15 15 15 14 15 13 14 14 13 14 20 12 5 2 2 4 1 3 5 5 2 2 2 1 4 4 4 5 6 7 5 6 3 1 1 5 6 6 5 7 6 6 7 8 5 4 5 3 3 1 3 3 3 4 3 1 5 2 3 1 3 5 3 5 5 5 8 8 7 1 7 11 15 9 7 5 3 8 8 5 1 3 5 5 5 7
15 16 15 16 16 17 17 15 13 14 13 18 14 4 4 4 4 2 4 6 3 1 1 1 1 1 2 1 2 5 5 3 3 4 5 3 4 3 1 3 4 3 1 2 3 2 2 1 2 3 3 2 3 5 1 4 6 3 4 1 2 8 7 1 4 3 6 3 1 1 1 9 9 3 4 4 5 4 8 6 7 8 5 6 5 8 8
15 15 15 16 16 17 17 17 15 14 16 18 13 6 6 7 4 4 5 5 2 2 1 1 1 0 1 3 2 1 1 2 5 3 4 5 4 2 1 1 1 1 1 1 1 1 2 4 3 2 2 1 7 4 2 2 0 4 6 7 2 5 2 0 2 2 3 3 2 2 2 2 5 3 3 3 5 2 2 5 5 6 5 9 8 7 6
15 15 15 15 17 18 18 17 17 17 16 14 11 7 5 7 10 8 5 4 2 3 0 1 1 4 7 9 5 0 2 1 4 4 1 2 4 2 1 2 1 2 1 1 2 1 2 2 2 1 2 3 5 2 9 7 4 2 1 2 2 3 3 1 4 1 4 3 5 2 1 0 5 4 3 2 2 3 3 2 4 5 5 6 3 3 6
16 16 14 15 18 18 17 17 18 19 18 20 16 7 6 4 7 11 10 6 4 5 4 3 8 4 3 2 5 4 6 3 3 4 4 3 1 3 4 2 3 1 2 3 1 4 1 3 1 1 5 3 5 5 0 3 2 7 5 3 1 2 6 2 2 2 3 1 4 2 2 3 3 3 4 4 4 3 3 0 1 1 2 2 4 5 5
16 17 16 15 16 18 18 17 18 18 19 20 16 8 8 9 9 7 5 3 3 2 5 5 2 3 2 6 3 4 4 7 6 4 3 3 2 3 8 4 4 4 4 2 0 2 3 3 1 0 4 3 1 3 1 2 1 1 4 4 2 2 9 3 4 4 2 3 1 3 1 2 5 5 7 4 3 5 4 3 2 2 5 3 2 2 3
17 17 17 16 16 17 18 16 16 18 20 20 12 9 9 7 11 12 11 9 6 1 3 6 2 1 1 7 2 5 4 7 6 7 5 4 5 5 7 7 6 3 4 2 2 3 3 2 1 2 1 1 2 1 1 1 2 2 3 4 3 3 4 3 4 2 3 5 6 8 4 1 5 7 10 9 7 5 4 3 4 4 5 4 6 5 2
18 18 17 16 16 16 17 17 16 18 19 18 11 7 8 8 11 13 11 9 11 3 3 4 4 3 2 1 3 3 3 7 9 9 8 6 6 7 8 6 6 3 2 4 1 1 2 4 2 0 2 1 2 1 2 2 2 1 3 5 5 8 6 6 4 4 2 4 6 8 3 2 4 8 8 7 6 7 7 7 8 8 7 6 7 7 4
19 18 17 17 16 16 17 18 18 18 21 17 5 5 2 7 10 12 12 10 4 4 4 2 2 4 5 4 4 6 3 6 7 7 7 6 7 7 8 8 7 5 3 2 2 1 1 1 2 3 2 5 5 1 3 1 2 6 9 6 7 5 2 6 4 7 2 3 9 8 5 5 4 4 6 5 7 9 10 8 6 5 6 7 8 9 10
20 19 18 18 18 17 18 17 18 18 18 6 4 3 3 2 6 10 11 9 7 3 4 5 4 4 1 3 1 2 4 3 5 7 8 7 7 6 6 7 4 2 1 2 3 2 2 2 1 2 3 4 3 2 3 2 1 7 5 5 9 3 4 4 6 6 4 4 7 10 9 5 2 2 2 1 2 8 7 9 9 9 8 9 10 8 7
21 20 19 19 18 18 18 19 19 18 13 8 6 3 5 5 9 12 12 8 7 5 2 1 4 1 2 1 2 5 7 6 5 6 6 5 4 4 2 2 1 3 3 1 1 1 2 1 2 2 1 1 3 3 4 3 2 6 6 9 9 7 7 7 5 4 5 5 4 3 1 2 2 2 3 4 4 6 6 4 6 6 7 7 9 10 8
21 21 20 19 19 18 19 20 20 17 8 9 10 7 3 2 2 14 17 10 8 6 5 4 3 3 2 2 0 2 5 5 5 3 2 2 2 1 2 1 3 1 2 2 1 1 0 2 2 2 4 2 4 2 2 2 5 9 6 9 5 7 8 7 6 2 2 7 9 3 1 4 5 8 7 6 9 7 9 9 5 2 4 5 3 4 5
21 21 21 20 19 19 19 20 22 15 8 12 4 6 2 9 13 24 16 12 6 2 1 3 5 3 1 3 3 2 3 5 2 4 4 2 5 2 2 1 1 1 2 2 1 3 1 2 2 2 3 1 3 2 2 6 14 7 7 6 5 8 10 5 6 6 6 7 8 6 6 8 8 10 9 4 5 8 8 8 3 3 3 3 4 5 5
22 21 21 20 19 20 18 19 21 20 12 7 3 10 4 5 17 23 18 10 4 1 1 3 4 3 3 2 4 3 6 7 6 8 5 3 2 3 2 1 0 3 3 4 2 2 1 1 1 3 1 1 0 2 3 12 18 7 4 4 6 4 5 6 6 8 7 7 6 7 8 3 4 3 2 4 5 3 3 1 2 3 5 6 7 10 10
22 21 20 20 19 18 18 17 10 9 6 5 5 2 9 15 18 19 19 8 7 4 3 2 1 5 3 2 1 3 5 5 6 8 5 4 3 5 3 3 2 4 4 3 1 2 3 3 3 3 3 1 2 3 7 13 9 6 8 7 6 7 6 3 8 8 5 5 6 8 8 4 3 4 7 7 5 5 6 5 6 8 7 7 10 10 6
22 21 20 19 18 14 7 8 5 3 4 5 5 9 19 18 21 16 9 2 2 5 6 5 6 8 7 7 6 3 7 3 4 5 2 4 2 1 1 3 5 5 0 1 4 2 3 4 4 2 3 5 8 9 9 9 10 12 11 11 8 10 10 10 5 6 7 6 6 8 7 4 7 9 9 5 3 4 8 6 6 5 8 10 10 9 7
23 21 20 17 6 1 7 5 4 5 5 5 9 18 19 11 6 3 2 2 1 1 4 6 6 9 11 5 2 2 8 6 6 4 6 5 5 4 3 4 6 3 3 1 3 6 3 2 3 3 4 9 9 13 14 13 13 12 10 6 5 8 7 3 8 9 5 6 5 4 3 3 6 5 5 7 6 3 3 6 8 8 9 12 11 7 8
21 20 7 3 5 8 4 5 5 7 19 24 23 10 2 4 5 4 2 3 2 3 1 1 8 3 3 7 4 8 6 4 6 5 4 5 5 2 2 3 4 4 4 5 4 3 3 2 4 6 8 8 11 11 13 14 7 2 2 2 4 6 7 7 8 8 6 2 4 4 2 2 6 6 6 9 6 6 10 10 7 6 7 8 9 7 5
17 7 3 4 5 6 6 3 10 24 15 6 3 4 1 1 5 3 4 2 2 2 2 6 7 3 6 4 2 4 4 9 8 5 6 7 5 3 3 4 5 3 3 2 4 5 2 3 4 5 7 8 9 17 12 1 1 3 3 3 3 5 6 7 10 11 9 9 9 7 8 8 8 10 7 8 6 6 5 5 5 6 8 8 8 6 5
4 8 7 5 8 5 0 12 26 14 4 2 2 3 4 1 3 3 1 4 1 1 3 5 3 3 6 13 12 6 3 7 10 12 8 6 1 5 1 3 3 4 4 4 2 2 5 6 6 4 8 9 13 10 5 5 4 1 2 3 3 3 2 2 3 5 5 7 1 2 1 4 4 5 4 4 5 5 4 5 6 5 5 7 6 5 6
8 4 6 6 4 3 2 1 2 4 3 2 2 1 3 1 1 1 3 3 1 3 1 4 4 4 1 3 7 8 1 4 2 3 3 4 2 6 2 3 2 5 2 2 1 4 2 2 4 6 10 10 5 3 4 3 4 7 8 8 7 7 6 4 3 5 3 2 2 1 1 1 1 1 1 0 2 3 2 2 4 4 4 4 5 3 4
6 4 3 6 3 3 4 2 1 3 2 0 3 3 1 2 2 3 1 7 7 3 3 4 8 11 10 9 6 4 1 0 2 2 3 3 2 4 2 1 2 4 2 2 3 2 3 3 4 4 5 2 5 7 8 6 7 8 9 9 9 8 8 7 6 9 8 6 4 3 3 4 5 6 5 3 2 2 2 2 2 4 4 4 3 4 4
20 13 8 5 2 2 2 3 2 2 4 2 3 2 0 4 3 5 3 1 3 3 4 3 1 5 3 2 4 1 3 3 2 1 3 4 1 3 2 0 2 1 3 1 3 3 3 4 6 8 3 2 4 4 6 4 4 4 3 7 7 6 6 7 7 6 7 9 7 5 4 7 7 4 4 4 1 5 5 4 3 3 3 3 5 6 5
7 5 4 1 3 3 3 5 2 4 0 1 5 7 4 3 1 2 2 4 3 2 3 10 10 14 9 0 5 4 2 1 2 3 2 0 3 2 2 2 2 1 3 2 2 3 4 2 6 1 3 2 2 3 4 6 6 6 4 5 7 7 7 6 6 7 9 5 8 5 4 4 4 5 6 8 9 5 4 4 4 3 2 3 6 6 5
6 3 3 3 3 3 3 3 1 2 4 4 3 3 6 10 9 9 8 2 4 9 7 4 8 10 10 3 3 2 1 3 1 4 3 3 3 0 3 3 2 1 3 4 1 1 2 6 2 4 2 2 2 3 3 4 5 5 6 5 7 9 9 8 7 5 5 6 7 5 8 5 6 6 6 7 5 5 6 5 5 5 4 6 6 7 6
7 7 5 5 3 1 2 2 2 0 2 2 4 6 5 6 8 7 1 1 6 9 12 10 9 11 7 2 5 4 2 3 3 1 2 2 4 1 1 0 2 2 1 2 3 7 8 3 3 3 2 2 5 5 5 3 3 4 5 6 7 6 6 5 4 4 4 4 4 4 4 4 4 4 5 5 4 6 6 4 4 3 3 7 6 5 4
2 1 1 1 3 1 1 4 5 2 2 3 3 2 3 6 3 5 2 1 9 8 10 5 6 6 11 4 4 2 3 1 3 1 3 3 2 1 2 3 2 3 5 4 3 4 4 1 2 3 1 3 4 6 6 5 3 4 5 4 4 5 6 5 5 5 5 5 4 5 5 4 4 3 3 4 5 5 6 6 6 5 4 7 4 3 4
3 0 2 2 3 3 5 2 2 3 1 1 1 2 4 5 10 5 1 2 8 10 13 11 9 6 6 2 4 4 2 0 4 3 1 2 2 4 1 2 1 1 2 5 9 3 2 2 2 2 2 2 3 4 4 6 6 6 5 5 6 6 6 6 6 5 5 5 5 4 4 4 4 4 6 7 6 6 5 6 7 5 6 5 5 6 6
3 2 2 2 1 1 2 3 5 6 3 2 0 3 6 8 8 7 2 3 11 10 7 9 6 5 2 0 3 2 1 1 4 3 2 2 2 4 4 4 2 2 4 2 1 2 2 2 2 2 1 3 3 3 3 4 6 6 5 4 5 5 4 4 4 4 4 3 3 4 4 3 4 4 5 5 7 6 5 5 7 8 7 6 6 6 6
3 3 5 3 3 3 1 1 6 6 2 3 2 4 4 10 9 2 2 6 7 9 7 8 4 6 1 2 2 1 1 1 2 1 3 2 2 1 4 2 4 5 2 1 1 1 2 2 2 2 3 3 4 4 4 4 4 4 4 4 3 3 3 3 3 4 4 3 4 4 4 5 4 4 7 7 4 3 4 7 9 8 7 6 6 6 7
2 5 3 3 0 3 4 7 9 9 6 5 5 1 1 6 6 6 2 3 8 9 5 4 2 4 2 2 2 4 1 2 4 2 4 3 1 3 3 4 2 1 3 3 2 2 2 2 2 2 3 3 3 4 4 4 4 4 5 5 3 2 2 3 2 2 3 3 2 4 7 6 4 5 4 5 5 7 9 7 7 6 6 5 5 6 6
2 4 2 2 4 6 4 7 9 7 5 1 3 3 2 5 4 1 4 3 8 10 6 2 4 3 3 3 2 2 2 3 2 2 2 0 1 2 2 1 2 3 2 2 2 3 2 2 1 1 2 3 3 4 4 4 3 4 2 4 4 2 1 2 2 2 2 4 5 4 5 3 3 2 3 4 4 6 8 5 3 5 4 3 3 4 5
Wind_Direction
333 316 293 212 137 69 90 183 202 195 175 148 219 144 239 221 214 8 160 156 159 170 187 184 197 210 221 223 253 217 214 204 176 187 182 202 169 202 224 215 200 238 201 161 184 181 206 177 205 193 217 227 207 144 170 135 161 115 32 57 232 96 173 184 213 44 260 209 210 232 280 300 268 251 254 199 207 192 207 235 140 193 153 187 206 247 267
319 321 324 92 105 98 85 91 188 192 179 175 130 173 221 187 112 300 194 166 160 176 188 187 203 213 220 211 228 222 228 197 180 208 196 198 178 215 208 135 229 213 132 167 188 184 228 210 199 224 176 222 87 156 155 156 169 174 201 175 163 161 211 179 156 193 178 206 187 220 148 202 224 213 189 214 238 196 77 95 122 247 204 170 168 244 172
291 305 39 22 67 80 89 83 74 183 194 174 148 183 154 101 1 244 273 207 176 187 179 188 193 207 208 201 216 215 227 220 216 197 203 193 206 195 222 214 148 189 184 193 207 191 202 149 214 203 185 199 100 32 182 173 180 153 328 85 160 195 137 168 193 199 197 199 204 207 196 206 147 347 151 194 202 168 149 211 183 233 175 168 212 239 85
261 253 287 45 100 88 92 95 77 69 187 179 172 178 109 148 201 173 232 206 303 270 235 191 187 196 204 214 221 214 223 220 213 204 219 189 203 211 117 44 167 188 154 194 201 210 243 196 192 188 205 155 197 157 207 200 166 129 128 137 143 180 198 213 213 208 214 231 17 49 82 94 201 196 175 196 202 196 197 223 203 215 135 197 219 219 167
245 237 238 84 77 104 88 79 82 72 67 177 160 130 169 134 208 154 214 19 243 241 147 198 183 200 187 208 188 213 218 211 183 189 225 200 201 202 191 169 178 205 194 203 209 203 207 237 114 210 177 44 76 38 163 117 137 144 118 173 130 154 207 218 229 246 247 53 241 275 162 194 212 197 202 196 192 190 193 200 216 119 134 247 223 174 236
231 227 226 227 189 118 101 62 63 88 81 73 158 199 154 213 249 187 237 197 201 217 242 206 203 210 181 213 188 212 214 208 217 184 224 195 195 203 226 212 211 202 196 190 208 176 206 177 217 161 189 106 173 110 117 173 205 149 153 198 163 178 218 223 202 242 250 35 283 253 217 204 204 206 204 197 192 187 199 216 207 155 200 230 121 173 210
222 223 216 212 207 154 104 96 69 48 88 100 158 156 252 115 71 192 319 210 281 216 210 180 206 198 182 208 212 215 215 217 214 198 175 202 200 198 216 213 212 211 205 202 210 183 186 225 219 167 180 182 147 163 73 250 119 176 137 186 211 133 239 204 183 236 233 228 193 198 215 200 243 213 208 206 194 197 202 214 206 198 227 234 197 195 222
209 214 207 201 190 160 153 109 79 37 65 98 98 14 150 197 152 205 41 66 26 77 124 177 199 214 188 195 205 209 210 221 217 200 182 202 216 200 223 226 206 205 206 203 211 202 210 203 197 197 170 175 196 198 190 129 89 196 175 170 244 175 226 167 157 219 232 211 165 167 182 202 230 238 224 216 208 198 204 212 214 222 239 230 122 214 245
206 208 207 198 189 176 147 144 116 358 340 70 104 121 138 349 345 249 137 200 202 107 120 166 201 211 199 206 210 208 215 222 209 209 217 218 208 195 217 224 221 205 217 223 229 227 223 225 218 186 172 198 195 175 230 153 155 174 170 170 193 195 238 65 158 220 229 187 186 199 88 17 260 260 234 163 155 173 211 210 209 181 222 234 244 250 246
208 203 207 201 191 178 164 148 128 45 41 117 122 119 170 79 280 315 126 182 204 208 83 199 188 225 209 207 206 204 220 224 193 220 219 44 282 224 217 221 208 214 209 218 222 129 104 109 80 84 52 63 63 82 159 165 163 175 185 148 172 189 162 166 175 213 217 87 189 185 125 142 283 240 223 169 194 199 181 217 203 209 202 206 216 235 239
223 205 199 200 195 190 179 162 173 108 104 135 124 149 174 184 162 11 51 159 312 185 194 215 199 246 114 196 217 219 244 202 203 207 205 193 354 336 224 201 204 187 213 153 92 113 105 104 90 63 65 63 67 55 92 100 165 172 163 151 166 158 183 204 179 220 173 41 145 143 159 209 229 347 192 184 196 194 192 210 207 217 202 217 227 246 146
247 214 202 198 195 196 183 174 166 136 124 147 123 140 185 139 75 61 87 195 202 166 199 206 201 208 187 202 204 207 211 201 209 215 178 138 5 334 72 122 183 191 130 136 134 126 118 60 51 43 46 44 40 34 44 81 29 359 183 168 163 170 182 206 156 179 164 138 139 169 209 228 69 281 346 326 199 183 203 221 218 218 215 225 277 181 182
270 243 219 205 195 191 192 180 176 146 131 127 117 144 214 147 101 98 113 128 200 170 188 234 133 126 192 197 192 219 219 338 70 78 111 138 352 24 33 115 114 113 150 132 94 68 79 95 67 81 77 74 62 66 54 54 34 1 14 15 156 171 180 141 158 122 62 140 181 192 220 51 135 69 10 67 74 203 206 234 240 231 218 211 220 221 186
261 253 232 219 205 194 193 187 180 165 151 134 106 118 140 142 112 104 129 140 226 130 136 63 130 156 168 193 182 165 158 190 61 87 122 17 140 175 314 37 51 148 153 117 94 105 91 167 124 124 140 99 107 141 160 68 37 46 83 26 2 185 111 190 173 183 167 192 200 247 356 313 203 134 188 170 160 167 174 212 233 218 194 196 208 220 165
254 254 247 225 214 207 192 191 180 172 162 130 99 85 125 100 127 132 159 94 170 141 201 201 190 183 167 166 158 152 166 166 151 153 66 49 94 302 82 342 336 181 169 130 131 91 139 120 131 132 163 154 190 188 95 198 109 25 34 353 45 283 194 223 165 209 136 140 187 259 240 239 259 146 162 181 346 151 162 172 260 50 197 177 186 212 207
254 254 249 236 217 220 207 191 182 171 167 133 105 121 131 128 94 97 129 151 153 220 224 183 86 148 154 167 178 171 172 164 167 121 130 117 78 65 317 287 313 66 106 70 97 127 148 131 185 160 190 176 107 96 232 136 13 49 13 330 116 67 91 357 203 213 132 210 223 231 231 245 59 147 141 49 74 119 114 96 259 174 182 184 184 207 196
258 252 249 242 229 220 215 201 183 171 165 151 132 146 162 192 128 139 122 65 135 194 24 101 116 108 111 81 78 302 199 164 158 146 177 185 162 132 86 331 315 144 187 116 173 131 136 140 48 153 26 148 134 193 81 115 150 11 54 65 123 167 196 174 218 204 200 208 231 232 213 270 9 227 208 191 177 211 97 243 266 155 201 175 173 200 177
263 252 243 240 235 231 218 210 198 173 169 163 136 149 163 138 169 109 68 118 158 208 195 207 135 139 177 181 153 124 89 104 74 25 65 105 122 153 170 136 127 302 263 167 177 152 186 173 178 191 181 96 251 110 195 157 164 186 170 167 154 183 201 207 213 216 215 217 235 267 273 234 153 167 170 122 231 161 173 223 119 161 168 175 185 203 155
265 259 245 239 236 234 226 212 210 187 171 158 111 77 45 177 194 105 108 121 123 188 177 72 332 132 120 62 84 130 139 117 146 121 145 120 221 161 123 208 145 163 199 184 156 181 195 203 42 120 157 222 207 187 129 128 191 84 133 104 78 34 107 333 238 230 224 219 226 233 270 191 137 37 102 213 129 180 195 144 321 140 181 201 201 161 158
262 265 259 243 237 233 223 221 208 201 177 158 148 145 170 156 208 166 155 153 132 124 147 185 181 178 196 144 161 134 148 95 233 138 185 162 106 118 93 126 304 66 105 207 183 201 183 205 184 136 137 171 201 118 33 271 63 158 171 209 168 178 158 199 195 198 46 143 238 209 241 151 124 120 66 281 166 253 101 114 56 89 177 160 201 187 181
258 254 252 249 243 235 225 222 216 205 188 169 164 127 105 152 179 245 99 125 128 142 253 207 346 223 155 176 190 172 163 184 171 175 174 119 183 166 177 209 169 160 176 173 192 185 191 198 139 173 231 126 182 109 208 137 286 274 131 190 146 189 125 212 213 184 184 191 211 216 286 129 175 148 171 184 188 152 146 133 162 164 166 179 172 210 190
255 257 252 246 241 233 227 218 218 218 201 180 169 133 133 161 140 108 110 86 102 146 203 120 130 248 300 293 202 161 162 151 193 151 130 134 220 218 1 51 142 157 179 108 69 40 1 114 65 117 175 171 358 198 193 125 208 168 360 227 178 205 191 193 199 165 181 213 216 36 298 150 175 78 0 114 140 139 164 146 158 152 209 192 188 190 191
253 249 251 250 249 241 231 223 211 209 216 197 173 174 167 143 140 149 107 90 32 57 67 34 110 267 220 236 192 336 352 296 122 94 136 128 188 220 170 158 169 110 64 346 209 136 146 135 188 147 57 221 178 160 349 235 240 142 173 230 271 13 103 19 103 260 88 36 114 46 48 192 175 79 15 92 127 102 104 148 126 214 163 172 183 183 169
255 252 247 244 247 246 241 230 218 211 214 217 186 166 161 158 150 120 68 58 143 157 164 351 130 206 199 215 180 285 141 132 195 171 170 137 191 175 23 270 175 61 340 289 327 130 163 85 183 87 176 202 100 148 186 220 223 169 84 235 224 210 133 150 191 286 138 231 110 122 109 322 221 188 104 31 47 153 161 232 172 162 157 186 293 139 170
253 253 252 245 240 239 239 239 228 221 209 208 201 191 113 128 164 156 147 156 168 167 207 186 219 223 167 68 91 114 213 181 94 112 105 95 138 188 194 137 127 155 173 154 197 84 48 117 209 140 193 227 146 212 326 187 229 161 194 224 116 251 177 100 197 49 199 242 121 183 297 267 286 239 200 216 170 172 190 225 26 69 126 165 129 107 110
249 250 248 248 247 239 232 232 235 226 217 215 202 173 177 171 174 165 109 85 102 154 207 226 197 37 170 115 178 201 150 127 154 134 145 155 132 133 132 121 73 45 96 86 315 117 121 61 79 148 179 236 135 177 177 205 74 80 213 227 156 101 129 198 174 153 114 49 303 258 274 186 194 200 245 232 166 169 182 172 128 102 127 141 153 246 165
246 247 249 247 243 240 233 227 230 232 219 216 205 187 180 165 167 176 172 161 135 254 215 232 147 70 188 201 180 95 133 142 122 139 118 118 122 99 109 121 121 111 106 78 34 102 51 106 135 197 212 217 53 121 108 108 143 167 197 224 144 132 202 163 117 116 199 182 177 173 126 213 191 208 215 214 188 164 144 143 175 192 181 169 167 208 200
246 245 245 245 244 240 235 225 220 229 228 217 207 187 168 166 189 187 184 178 187 193 165 167 151 208 100 302 232 125 107 149 146 144 155 135 136 137 138 139 126 134 144 137 119 128 176 157 211 39 58 263 81 38 111 2 38 358 247 222 171 197 184 153 181 196 196 197 161 186 151 160 202 198 209 180 151 161 177 195 199 205 198 175 172 186 201
243 244 243 245 246 246 241 231 219 217 220 214 157 143 167 194 185 195 192 199 163 87 88 85 39 139 156 209 95 116 75 138 154 144 135 134 138 145 138 154 153 147 99 76 87 99 131 201 91 152 174 224 106 238 116 139 202 221 232 143 165 241 154 169 139 87 44 180 171 179 152 177 204 186 220 189 162 166 198 224 213 198 181 185 201 203 195
240 240 241 240 242 241 241 235 226 221 217 162 98 98 158 233 211 202 198 180 143 120 137 146 138 215 25 46 85 192 107 126 117 133 132 136 149 150 155 145 115 127 122 151 170 152 191 132 197 269 294 303 139 176 102 221 234 251 239 146 196 121 87 124 150 143 188 173 178 180 188 167 57 145 183 49 126 171 190 220 212 200 194 177 194 212 219
237 238 238 238 238 241 239 236 227 221 200 157 153 136 173 204 203 199 183 150 141 120 158 112 177 120 56 271 106 173 159 129 142 140 147 143 145 140 125 87 81 176 145 167 102 170 127 102 172 197 67 305 109 122 164 170 231 276 224 159 192 163 147 171 206 157 150 142 103 78 48 111 99 67 297 211 204 186 205 252 242 221 207 177 207 211 212
236 236 237 236 235 236 237 237 229 220 177 163 190 196 196 259 124 155 168 162 126 141 157 130 173 136 192 151 93 318 118 114 103 103 95 143 129 166 104 336 171 185 165 134 203 84 192 199 121 176 141 181 96 96 101 137 225 241 104 155 178 138 164 174 179 223 72 127 111 81 271 231 175 178 220 190 176 181 195 215 217 151 191 205 248 241 244
233 234 234 236 234 233 233 235 232 218 165 198 187 34 324 304 171 154 157 140 120 159 160 173 175 180 140 192 107 337 155 113 100 140 162 216 163 140 134 50 62 92 276 118 227 166 222 113 171 136 209 37 103 164 164 215 233 214 135 164 144 165 174 151 151 195 166 182 163 178 205 214 193 207 230 210 145 181 202 227 180 116 130 182 237 253 252
232 231 233 234 235 233 236 235 232 222 202 184 202 229 233 264 169 157 152 145 135 130 137 151 167 122 137 98 96 196 171 154 164 160 152 161 140 124 167 133 255 165 274 170 241 86 311 123 140 160 107 39 164 106 225 241 239 224 175 211 153 121 107 129 185 204 198 182 232 225 224 206 74 88 126 223 198 181 186 108 137 187 220 220 234 230 231
230 231 231 233 232 235 238 237 233 222 186 191 223 256 153 174 167 160 155 152 133 166 138 218 154 140 128 56 154 189 152 147 158 174 150 154 132 151 173 112 225 195 227 112 69 173 171 187 169 127 195 156 114 217 231 244 246 231 233 227 198 123 103 141 235 208 180 199 208 238 252 269 255 263 239 227 171 165 175 215 215 204 229 238 228 232 225
227 228 230 230 233 235 249 242 225 148 118 185 220 163 160 168 163 164 159 25 126 158 164 186 167 189 159 174 178 225 140 122 143 128 128 132 102 159 122 147 186 205 64 120 184 184 177 189 140 176 207 179 208 215 227 226 232 237 231 233 201 169 197 197 133 161 196 198 207 227 242 243 226 242 252 254 172 175 191 193 204 207 223 239 242 236 233
222 224 224 230 220 201 219 212 145 191 208 158 140 140 130 99 18 58 52 144 318 355 148 162 179 191 186 187 74 182 149 159 162 123 163 143 155 166 143 194 191 160 99 147 210 201 191 106 93 177 210 206 223 227 228 227 229 230 240 229 172 182 199 113 146 145 157 201 216 235 245 245 253 257 259 256 228 168 165 206 205 195 214 231 239 243 237
218 218 208 177 180 209 209 189 199 162 124 128 126 98 136 144 165 150 131 158 224 92 336 127 191 164 30 136 184 179 123 154 130 141 146 164 142 179 174 176 210 157 148 202 215 135 90 119 196 207 231 236 237 239 234 238 253 360 302 222 168 160 170 153 147 139 149 183 257 232 233 269 254 251 232 249 234 203 217 222 221 216 227 237 239 239 250
214 203 164 184 206 211 201 213 164 137 129 149 51 112 108 216 143 176 191 143 116 171 214 171 183 137 145 113 71 133 151 163 143 166 154 192 135 226 155 160 243 114 228 166 250 157 143 206 189 219 242 240 245 245 242 79 147 195 211 231 169 183 178 177 175 174 188 209 223 210 187 207 226 243 225 237 250 229 228 231 231 229 228 241 249 250 255
151 195 178 152 208 205 333 154 142 121 133 125 303 112 138 193 153 188 133 88 68 272 146 191 150 155 197 170 150 165 237 172 164 177 164 157 126 168 221 93 246 123 203 187 194 95 132 185 186 175 245 240 237 244 88 155 212 218 43 2 9 0 333 228 220 246 231 246 353 53 170 226 236 243 235 215 227 233 230 231 238 243 242 244 254 254 248
193 157 164 191 149 123 76 3 14 93 111 116 62 12 115 103 250 173 124 174 162 196 170 141 117 127 144 95 138 141 111 57 1 56 117 162 231 95 77 172 227 89 245 160 196 82 122 98 185 199 232 240 279 12 137 93 30 36 29 11 11 11 15 39 56 24 15 13 35 56 8 335 295 297 27 4 225 241 231 209 221 234 240 249 261 274 360
181 155 126 95 92 120 98 33 94 96 71 125 138 196 166 141 80 35 212 169 192 169 219 159 165 165 175 164 162 112 88 124 114 101 120 150 231 129 195 8 355 124 180 199 93 75 120 167 187 225 238 53 15 6 36 59 13 14 14 12 11 8 10 20 44 35 29 58 67 61 24 42 51 44 18 10 18 22 17 11 1 14 10 335 353 19 13
111 115 117 105 152 183 163 171 221 148 149 130 98 115 203 124 164 155 188 257 316 106 163 43 89 71 13 65 59 7 143 180 136 152 91 146 107 59 106 75 120 112 192 59 81 104 144 176 207 221 85 19 3 19 23 358 319 317 8 28 16 3 12 21 29 50 38 42 34 37 11 47 54 39 24 341 32 98 64 56 25 323 314 347 26 27 5
127 124 125 191 147 243 168 206 168 80 63 181 153 155 172 129 271 56 109 204 168 139 195 151 171 148 152 347 128 140 90 24 111 97 51 333 93 171 119 160 188 242 54 64 114 149 200 231 221 152 146 121 31 14 4 357 355 329 342 16 15 14 11 19 29 35 21 33 45 37 55 67 71 49 37 38 39 56 26 26 8 359 356 26 46 27 359
149 138 120 145 195 180 159 214 47 144 181 205 156 170 166 175 186 176 184 190 127 160 125 103 143 134 131 156 69 5 123 160 296 109 193 133 76 122 129 178 139 33 110 162 121 347 8 257 199 124 177 152 12 347 331 357 359 348 300 317 16 14 19 23 18 23 20 23 8 6 26 23 48 53 46 44 31 27 36 26 336 358 31 56 41 30 6
175 175 158 141 150 198 168 129 110 241 283 162 191 187 181 198 156 172 174 102 117 131 140 152 131 121 109 309 127 158 86 118 97 148 123 73 121 165 214 45 68 117 100 92 143 200 215 209 130 154 71 319 339 345 334 295 355 341 16 33 353 356 10 13 10 22 23 14 15 47 56 56 58 69 65 48 34 21 18 1 354 9 2 53 39 24 352
90 16 141 136 118 204 65 150 209 194 155 176 181 162 140 129 97 108 173 129 122 124 103 89 106 129 128 143 92 34 55 60 107 237 80 82 136 160 25 111 177 169 156 194 206 229 238 133 79 53 359 329 320 335 341 334 320 7 12 1 344 354 357 5 3 17 3 18 43 60 63 58 63 70 100 76 41 32 20 16 17 20 53 79 74 45 43
139 176 102 122 167 157 167 233 131 113 6 119 246 134 146 145 114 106 215 163 125 126 127 124 117 101 62 306 68 120 114 150 89 322 146 137 63 57 114 73 168 197 174 173 216 187 124 65 87 26 11 5 322 322 339 353 349 347 349 354 351 352 354 356 358 356 1 17 31 46 59 54 65 70 66 76 72 39 24 12 12 22 42 56 65 56 63
90 111 121 144 127 112 90 124 127 61 345 352 304 139 143 119 108 117 168 152 131 125 126 122 137 95 95 308 91 113 104 236 113 181 77 33 117 174 152 183 160 208 247 165 201 61 78 32 347 358 30 15 1 3 323 338 349 343 331 330 340 331 329 332 342 345 359 22 48 62 70 80 85 76 79 69 68 42 24 25 25 30 33 43 51 61 61
77 45 32 49 75 11 297 79 79 79 9 46 60 82 76 108 105 101 290 111 128 114 105 74 50 79 165 114 94 59 63 359 129 74 77 181 180 145 84 166 219 189 210 86 80 34 21 343 2 11 13 0 4 7 330 301 324 349 334 299 303 334 343 342 350 11 13 21 26 52 44 64 71 74 79 84 93 113 66 43 23 40 42 40 60 71 73
53 86 111 310 63 163 151 152 158 145 145 127 117 79 46 107 115 137 309 138 138 118 73 114 143 110 103 44 93 115 206 146 89 136 151 179 188 129 178 186 227 154 86 64 75 32 16 340 5 338 342 333 336 345 341 294 277 305 346 341 308 301 9 27 359 15 25 22 36 81 76 77 98 108 110 120 121 105 79 57 36 26 39 39 47 74 81
45 72 37 21 24 27 6 73 57 67 80 63 67 331 354 78 341 349 311 187 143 133 141 180 95 99 90 141 186 150 50 57 136 107 87 310 30 150 201 194 51 51 39 69 49 25 23 1 11 328 305 303 312 314 321 337 302 253 281 351 348 333 2 16 20 20 29 53 52 86 91 93 96 94 106 104 97 85 78 72 23 9 12 34 29 24 61